Location: Im Fang
(46.6019°N, 7.2397°E)
Time: 13:34:35
(UTC+00:00)

ADEOS Rocket - Pass Details

Date: 08 December 2019
Orbit: 859 x 1307 km, 98.7° (Epoch: 27 January)

Event Time Altitude Azimuth Distance (km) Brightness Sun altitude
Rises 06:17:07 0° 174° (S) 4,134 6.7 -7.5°
Reaches altitude 10° 06:19:54 10° 177° (S) 3,120 6.0 -7.1°
Maximum altitude 06:26:57 63° 258° (WSW) 1,223 3.4 -6.0°
Drops below altitude 10° 06:33:20 10° 340° (NNW) 2,826 5.0 -5.1°
Sets 06:35:45 0° 344° (NNW) 3,722 5.6 -4.7°
